CZ-6A DEB

Satellite information

Favourite Embed

Satellite Type and Status

DEBRISIN ORBIT

Key statistics

Satellite CZ-6A DEB at a glance.

Uptime

442

Days in orbit

Revolutions

≈ 14.7

Per day

Orbit

LEO

Low Earth Orbit

Inclination

89.0

Latest

Satellite identification and parameters

Extended collection of information and parameters for CZ-6A DEB.

Object identification

Identified? True

Debris? True

Object name: CZ-6A DEB

International designator: 2024-140PS

Object number (NORAD): 61124

Object ID (CCSDS): 61124

Country: PEOPLES REPUBLIC OF CHINA (PRC)

Current information (Y/N): Y

RCS size: SMALL

Orbital parameters

Period: 97.764 minutes

Inclination: 88.9951 deg

SMA: 7029.864 km

Apoapsis: 775.676 km

Periapsis: 527.781 km

RAAN: 297.428 deg

Eccentricy: 0.01763157

Argument of periapsis: 319.0124 deg

Mean anomaly: 39.7951 deg

Mean motion: 14.72931013 rev/day

Mean motion (dot): 0.00008069 rev/day2

B* drag term: 0.00097973825 1/REarth

Two-line elements (TLE)

Creation date: Oct. 20, 2025, 6:08 p.m.

Reference frame: TEME

Reference center: EARTH

Epoch: Oct. 20, 2025, 10:13 a.m. UTC

TLE line 0: 0 CZ-6A DEB

TLE line 1: 1 61124U 24140PS 25293.42595329 .00008069 00000-0 97974-3 0 9997

TLE line 2: 2 61124 88.9951 297.4280 0176316 319.0124 39.7951 14.72931013 62443

Live tracking on map

Real-time ground track for satellite CZ-6A DEB.

In-orbit conjunctions

A list of the most updated potential collisions computed for object CZ-6A DEB.

Target Orbit TCA Probability of collision Miss distance Type
RADCAL LEO 2025-04-23 12:32:35 0.0008542087 473.0 (m) PAYLOAD
FENGYUN 1C DEB SSO 2025-03-02 20:37:30 0.0004041755 275.0 (m) DEBRIS
FENGYUN 1C DEB SSO 2025-02-21 05:03:18 0.000154612 872.0 (m) DEBRIS
DELTA 1 DEB SSO 2025-02-17 17:29:39 0.0001465085 168.0 (m) DEBRIS
COSMOS 2251 DEB LEO 2024-11-20 20:06:04 0.0002661187 105.0 (m) DEBRIS

Associated space launch

18 Low Earth Orbit communication satellites with Ku, Q and V band payloads for the G60 constellation operated by Shanghai Spacecom Satellite Technology (SSST) with funding backed by the Shanghai local government. Initial constellation will consist of 1296 satellites by 2027 with long term plans to expand it to 12000 satellites.

CZ-6A DEB was lifted into orbit during the mission ‘Long March 6A | G60 Polar Group 01’, on board a Long March 6A space rocket.

The launch took place on Aug. 6, 2024, 6:42 a.m. from Launch Complex 9A.

For more information about the launch, click the button.

Launch to space Long March 6A | G60 Polar Group 01
Long March 6A | G60 Polar Group 01

Agency: N/A

Status: Launch Successful

Launch date: Aug. 6, 2024, 6:42 a.m. UTC

Rocket: Long March 6A

Launch pad: Launch Complex 9A

Location: Taiyuan Satellite Launch Center, People's Republic of China

...

Latest news about this satellite

News about space launch
Brightness of first Chinese broadband constellation satellites alarms astronomers

The first satellites of a Chinese broadband constellation are significantly brighter than those of Western systems, posing a new challenge for astronomers.

News about space launch
Chinese rocket stage breaks up into cloud of more than 700 pieces of space debris

HELSINKI — A Chinese Long March 6A rocket’s upper stage has fragmented into a cloud of over 700 pieces of space debris, adding to concerns about long-term orbital safety. China […]

News about space launch
China's Thousand Sails Megaconstellation Kicks Off with Dangerous Debris Field

China's Thousand Sails Megaconstellation Kicks Off with Dangerous Debris Field


Newsletter sign-up

Weekly statistics, charts and insights to help you stay on top of the space industry.